UAL1591 KLAS-KLAX

Flight info

Callsign UAL1591
Flight time N/A
Altitude 28000
Route RADYR2 BLAQQ SHTNR ANJLL4
Aircraft A319/M-SDE3FGHIRWY/LB1

Departure

Time 2026-05-04 16:51
Airport Harry Reid International Airport (KLAS)

Arrival

Time N/A
Airport Los Angeles International Airport (KLAX)
Time Latitude Longitude Altitude Speed Heading
2026-05-04 16:29 36.08133 -115.13581 2188 ft 0 kts 243°
2026-05-04 16:41 36.08138 -115.13568 2189 ft 3 kts 243°
2026-05-04 16:42 36.08163 -115.13505 2190 ft 3 kts 243°
2026-05-04 16:43 36.08174 -115.13471 2192 ft 3 kts 251°
2026-05-04 16:43 36.08184 -115.13439 2189 ft 3 kts 221°
2026-05-04 16:43 36.08199 -115.13429 2190 ft 1 kts 181°
2026-05-04 16:45 36.08187 -115.13428 2190 ft 5 kts 176°
2026-05-04 16:46 36.07892 -115.13372 2190 ft 13 kts 180°
2026-05-04 16:46 36.07829 -115.13185 2188 ft 22 kts 90°
2026-05-04 16:47 36.07829 -115.12716 2188 ft 33 kts 90°
2026-05-04 16:47 36.07831 -115.12311 2188 ft 14 kts 92°
2026-05-04 16:48 36.07739 -115.12136 2189 ft 0 kts 145°
2026-05-04 16:49 36.07738 -115.12135 2189 ft 0 kts 145°
2026-05-04 16:49 36.07707 -115.12124 2189 ft 6 kts 174°
2026-05-04 16:50 36.07641 -115.12224 2193 ft 12 kts 268°
2026-05-04 16:50 36.07638 -115.13012 2190 ft 97 kts 270°
2026-05-04 16:51 36.07632 -115.15486 2337 ft 176 kts 266°
2026-05-04 16:51 36.07658 -115.17007 2993 ft 177 kts 265°
2026-05-04 16:51 36.07666 -115.20159 3960 ft 196 kts 268°
2026-05-04 16:52 36.07291 -115.23828 4512 ft 236 kts 253°
2026-05-04 16:52 36.06494 -115.25679 4908 ft 255 kts 224°
2026-05-04 16:53 36.03241 -115.27605 6272 ft 271 kts 197°
2026-05-04 16:53 35.97803 -115.29724 8232 ft 277 kts 189°
2026-05-04 16:54 35.95918 -115.30175 9227 ft 275 kts 190°
2026-05-04 16:55 35.87907 -115.32163 11681 ft 313 kts 190°
2026-05-04 16:55 35.83595 -115.33232 13240 ft 319 kts 191°
2026-05-04 16:56 35.79216 -115.34309 14656 ft 324 kts 191°
2026-05-04 16:56 35.72498 -115.35951 16616 ft 333 kts 192°
2026-05-04 16:57 35.70214 -115.36510 17258 ft 336 kts 192°
2026-05-04 16:57 35.65577 -115.37650 18470 ft 343 kts 192°